• In Uzbekistan
  • List of Countries
  • For 7 days
  • Water Temperature
  • Satellite Maps
  • Weather Map
  • Weather Widgets
  • user-avatar
    Login

    Hourly Weather Jewłach

    Today, 23 May, Tuesday

    Time Temperature Precipitation Wind Pressure Humidity
    00:00 +17°C° 0.5 mm 2 mps 756 mmHg 81%
    01:00 +18°C° 0.2 mm 1 mps 756 mmHg 82%
    02:00 +16°C° 0.2 mm 1 mps 757 mmHg 83%
    03:00 +16°C° 0 mm 1 mps 756 mmHg 85%
    04:00 +18°C° 0.1 mm 1 mps 756 mmHg 82%
    05:00 +19°C° 0.1 mm 1 mps 756 mmHg 80%
    06:00 +20°C° 0.1 mm 1 mps 756 mmHg 77%
    07:00 +22°C° 0 mm 1 mps 756 mmHg 69%
    08:00 +24°C° 0 mm 1 mps 756 mmHg 61%
    09:00 +25°C° 0 mm 1 mps 755 mmHg 52%
    10:00 +27°C° 0 mm 1 mps 755 mmHg 47%
    11:00 +28°C° 0 mm 2 mps 755 mmHg 43%
    12:00 +30°C° 0 mm 2 mps 755 mmHg 38%
    13:00 +30°C° 0.1 mm 3 mps 755 mmHg 37%
    14:00 +30°C° 0.1 mm 5 mps 755 mmHg 36%
    15:00 +30°C° 0.1 mm 6 mps 755 mmHg 34%
    16:00 +29°C° 0.2 mm 5 mps 755 mmHg 38%
    17:00 +28°C° 0.2 mm 4 mps 755 mmHg 42%
    18:00 +27°C° 0.2 mm 2 mps 755 mmHg 45%
    19:00 +25°C° 0.2 mm 2 mps 756 mmHg 48%
    20:00 +24°C° 0.2 mm 1 mps 756 mmHg 51%
    21:00 +23°C° 0.2 mm 1 mps 757 mmHg 53%
    22:00 +22°C° 0.1 mm 1 mps 757 mmHg 56%
    23:00 +21°C° 0.1 mm 1 mps 757 mmHg 59%

    Tomorrow, 24 May, Wednesday

    Time Temperature Precipitation Wind Pressure Humidity
    00:00 +20°C° 0.1 mm 1 mps 757 mmHg 61%
    01:00 +20°C° 0 mm 1 mps 757 mmHg 61%
    02:00 +19°C° 0 mm 2 mps 758 mmHg 60%
    03:00 +18°C° 0 mm 2 mps 758 mmHg 60%
    04:00 +19°C° 0.1 mm 2 mps 758 mmHg 60%
    05:00 +19°C° 0.1 mm 2 mps 758 mmHg 60%
    06:00 +20°C° 0.1 mm 2 mps 758 mmHg 60%
    07:00 +21°C° 0 mm 3 mps 758 mmHg 57%
    08:00 +22°C° 0 mm 3 mps 758 mmHg 53%
    09:00 +23°C° 0 mm 4 mps 758 mmHg 49%
    10:00 +23°C° 0.1 mm 4 mps 758 mmHg 48%
    11:00 +25°C° 0.1 mm 3 mps 757 mmHg 46%
    12:00 +25°C° 0.1 mm 3 mps 757 mmHg 45%
    13:00 +26°C° 0.2 mm 3 mps 757 mmHg 44%
    14:00 +26°C° 0.2 mm 3 mps 757 mmHg 44%
    15:00 +27°C° 0.2 mm 3 mps 757 mmHg 43%
    16:00 +26°C° 0.2 mm 3 mps 757 mmHg 46%
    17:00 +25°C° 0.2 mm 3 mps 757 mmHg 49%
    18:00 +25°C° 0.2 mm 3 mps 757 mmHg 53%
    19:00 +22°C° 0.1 mm 3 mps 758 mmHg 56%
    20:00 +21°C° 0.1 mm 3 mps 759 mmHg 60%
    21:00 +19°C° 0.1 mm 3 mps 759 mmHg 64%
    22:00 +19°C° 0.2 mm 3 mps 759 mmHg 64%
    23:00 +18°C° 0.2 mm 3 mps 759 mmHg 65%

    Day after tomorrow, 25 May, Thursday

    Time Temperature Precipitation Wind Pressure Humidity
    00:00 +17°C° 0.2 mm 3 mps 759 mmHg 66%
    01:00 +17°C° 0.2 mm 3 mps 759 mmHg 67%
    02:00 +16°C° 0.2 mm 3 mps 759 mmHg 68%
    03:00 +16°C° 0.2 mm 2 mps 759 mmHg 68%
    04:00 +17°C° 0.1 mm 2 mps 759 mmHg 66%
    05:00 +18°C° 0.1 mm 2 mps 760 mmHg 63%
    06:00 +19°C° 0.1 mm 2 mps 760 mmHg 60%
    07:00 +20°C° 0 mm 3 mps 760 mmHg 53%
    08:00 +22°C° 0 mm 3 mps 760 mmHg 46%
    09:00 +25°C° 0 mm 3 mps 760 mmHg 39%
    10:00 +26°C° 0 mm 2 mps 759 mmHg 36%
    11:00 +27°C° 0 mm 2 mps 759 mmHg 33%
    12:00 +28°C° 0 mm 2 mps 758 mmHg 30%
    13:00 +28°C° 0 mm 2 mps 758 mmHg 30%
    14:00 +29°C° 0 mm 2 mps 758 mmHg 29%
    15:00 +30°C° 0 mm 2 mps 758 mmHg 28%
    16:00 +29°C° 0.1 mm 2 mps 758 mmHg 31%
    17:00 +28°C° 0.1 mm 2 mps 758 mmHg 34%
    18:00 +27°C° 0.1 mm 2 mps 759 mmHg 37%
    19:00 +25°C° 0.1 mm 2 mps 759 mmHg 41%
    20:00 +21°C° 0.1 mm 2 mps 760 mmHg 45%
    21:00 +19°C° 0.1 mm 2 mps 761 mmHg 49%
    22:00 +18°C° 0 mm 2 mps 761 mmHg 57%
    23:00 +18°C° 0 mm 2 mps 761 mmHg 64%

    26 May, Friday

    Time Temperature Precipitation Wind Pressure Humidity
    00:00 +17°C° 0 mm 2 mps 761 mmHg 71%
    01:00 +18°C° 0 mm 1 mps 761 mmHg 74%
    02:00 +16°C° 0 mm 1 mps 761 mmHg 77%
    03:00 +15°C° 0 mm 0 mps 760 mmHg 79%
    04:00 +18°C° 0 mm 1 mps 760 mmHg 75%
    05:00 +19°C° 0 mm 1 mps 761 mmHg 71%
    06:00 +20°C° 0 mm 1 mps 761 mmHg 67%
    07:00 +21°C° 0 mm 2 mps 760 mmHg 58%
    08:00 +24°C° 0 mm 2 mps 760 mmHg 49%
    09:00 +25°C° 0 mm 2 mps 760 mmHg 40%
    10:00 +27°C° 0 mm 2 mps 759 mmHg 36%
    11:00 +28°C° 0 mm 2 mps 759 mmHg 33%
    12:00 +29°C° 0 mm 2 mps 758 mmHg 29%
    13:00 +30°C° 0 mm 1 mps 758 mmHg 28%
    14:00 +30°C° 0 mm 1 mps 757 mmHg 27%
    15:00 +31°C° 0 mm 1 mps 757 mmHg 27%
    16:00 +30°C° 0 mm 1 mps 757 mmHg 31%
    17:00 +30°C° 0 mm 1 mps 757 mmHg 35%
    18:00 +29°C° 0 mm 1 mps 757 mmHg 39%
    19:00 +27°C° 0 mm 1 mps 758 mmHg 41%
    20:00 +24°C° 0 mm 2 mps 759 mmHg 43%
    21:00 +21°C° 0 mm 2 mps 759 mmHg 44%
    22:00 +20°C° 0 mm 2 mps 759 mmHg 48%
    23:00 +20°C° 0 mm 2 mps 759 mmHg 52%

    27 May, Saturday

    Time Temperature Precipitation Wind Pressure Humidity
    00:00 +20°C° 0 mm 1 mps 759 mmHg 55%
    01:00 +19°C° 0 mm 1 mps 759 mmHg 59%
    02:00 +19°C° 0 mm 1 mps 759 mmHg 62%
    03:00 +18°C° 0 mm 1 mps 759 mmHg 65%
    04:00 +19°C° 0 mm 1 mps 759 mmHg 63%
    05:00 +21°C° 0 mm 1 mps 758 mmHg 60%
    06:00 +22°C° 0 mm 1 mps 758 mmHg 58%
    07:00 +23°C° 0 mm 1 mps 758 mmHg 52%
    08:00 +25°C° 0 mm 2 mps 758 mmHg 45%
    09:00 +26°C° 0 mm 2 mps 757 mmHg 39%
    10:00 +27°C° 0.1 mm 2 mps 757 mmHg 37%
    11:00 +28°C° 0.1 mm 2 mps 756 mmHg 34%
    12:00 +29°C° 0.1 mm 1 mps 756 mmHg 32%
    13:00 +29°C° 0.4 mm 1 mps 755 mmHg 32%
    14:00 +29°C° 0.4 mm 1 mps 754 mmHg 33%
    15:00 +30°C° 0.4 mm 1 mps 754 mmHg 33%
    16:00 +28°C° 0.9 mm 2 mps 754 mmHg 42%
    17:00 +27°C° 0.9 mm 2 mps 754 mmHg 51%
    18:00 +25°C° 0.9 mm 2 mps 754 mmHg 60%
    19:00 +24°C° 0.4 mm 2 mps 755 mmHg 64%
    20:00 +22°C° 0.4 mm 1 mps 755 mmHg 68%
    21:00 +21°C° 0.4 mm 1 mps 755 mmHg 71%
    22:00 +21°C° 0 mm 1 mps 755 mmHg 69%
    23:00 +20°C° 0 mm 1 mps 755 mmHg 67%

    28 May, Sunday

    Time Temperature Precipitation Wind Pressure Humidity
    00:00 +20°C° 0 mm 1 mps 755 mmHg 66%
    01:00 +19°C° 0 mm 2 mps 755 mmHg 64%
    02:00 +19°C° 0 mm 2 mps 755 mmHg 63%
    03:00 +19°C° 0 mm 3 mps 755 mmHg 62%
    04:00 +20°C° 0 mm 3 mps 755 mmHg 60%
    05:00 +20°C° 0 mm 3 mps 756 mmHg 58%
    06:00 +21°C° 0 mm 3 mps 756 mmHg 57%
    07:00 +24°C° 0 mm 3 mps 756 mmHg 49%
    08:00 +27°C° 0 mm 4 mps 755 mmHg 42%
    09:00 +29°C° 0 mm 4 mps 755 mmHg 34%
    10:00 +30°C° 0 mm 4 mps 755 mmHg 31%
    11:00 +33°C° 0 mm 4 mps 754 mmHg 28%
    12:00 +34°C° 0 mm 4 mps 754 mmHg 25%
    13:00 +34°C° 0 mm 4 mps 753 mmHg 24%
    14:00 +35°C° 0 mm 4 mps 753 mmHg 23%
    15:00 +35°C° 0 mm 4 mps 753 mmHg 22%
    16:00 +34°C° 0 mm 3 mps 753 mmHg 25%
    17:00 +33°C° 0 mm 3 mps 753 mmHg 28%
    18:00 +31°C° 0 mm 2 mps 753 mmHg 31%
    19:00 +29°C° 0 mm 2 mps 753 mmHg 33%
    20:00 +26°C° 0 mm 2 mps 754 mmHg 35%
    21:00 +24°C° 0 mm 2 mps 755 mmHg 36%
    22:00 +24°C° 0 mm 2 mps 755 mmHg 38%
    23:00 +22°C° 0 mm 3 mps 755 mmHg 39%
    Show more